Total_Precipitation_Accumulation
2.12 2.28 2.38 2.55 2.86 3.13 3.34 3.61 3.90 4.28 4.56 5.00 5.38 5.58 5.77 5.97 6.05 6.00 5.97 5.94 5.88 6.03 6.16 5.85 5.97 5.89 5.79 5.59 5.58 5.52 5.30 5.02 5.02 4.92 4.49 3.79 3.34 3.28 3.19 3.18 3.42 3.41 3.37
2.05 2.37 2.70 3.10 3.35 3.58 3.70 3.96 4.30 4.60 4.78 5.18 5.73 6.25 6.49 6.58 6.59 6.62 6.77 6.76 6.74 6.92 6.98 7.01 6.77 6.60 6.39 5.92 5.58 5.47 5.24 4.87 4.99 5.05 5.06 4.42 3.93 3.33 2.79 2.84 2.92 3.04 3.28
2.17 2.48 2.96 3.30 3.43 3.57 3.70 3.91 4.46 4.95 5.39 5.83 6.41 6.92 7.28 7.31 7.16 6.85 6.96 7.09 6.88 6.93 7.23 7.37 7.13 6.79 6.24 5.71 5.62 5.60 5.43 5.19 5.06 4.95 5.26 4.81 4.26 3.68 3.02 2.66 2.61 2.75 2.87
2.14 2.49 2.80 3.11 3.30 3.40 3.71 4.02 4.48 5.14 5.67 5.95 6.58 7.28 7.53 7.79 7.84 7.64 7.35 7.16 6.88 6.70 6.67 6.66 6.35 5.99 5.61 5.35 5.23 5.36 5.28 5.27 5.05 4.95 4.66 4.45 4.13 3.81 3.35 2.83 2.55 2.62 2.64
1.93 2.31 2.59 2.92 3.32 3.41 3.53 3.78 4.35 4.97 5.71 6.35 6.86 7.49 7.95 8.23 8.16 7.73 7.26 6.73 6.38 5.91 5.48 5.23 5.11 5.09 4.92 4.73 4.64 4.76 4.72 4.47 4.37 4.43 4.46 4.42 4.10 3.64 3.35 3.09 2.86 2.77 2.48
1.82 2.02 2.33 2.64 2.97 3.02 3.27 3.56 4.04 4.77 5.48 6.06 6.65 7.20 7.61 7.75 7.44 6.90 6.36 5.98 5.61 5.07 4.53 4.33 4.27 4.22 4.06 3.89 3.80 3.84 3.89 3.92 3.98 4.11 4.19 4.18 4.08 3.74 3.65 3.41 3.09 2.94 2.70
1.84 2.09 2.34 2.65 2.80 2.86 3.12 3.50 4.04 4.68 5.08 5.54 6.05 6.39 6.60 6.73 6.70 6.40 5.94 5.56 5.04 4.56 4.11 3.72 3.61 3.37 3.22 3.19 3.32 3.34 3.29 3.42 3.55 3.68 3.82 3.82 3.68 3.52 3.56 3.62 3.32 3.01 2.78
1.99 2.35 2.46 2.61 2.81 2.87 3.11 3.49 3.95 4.38 4.60 4.79 5.18 5.49 5.61 5.63 5.49 5.34 4.94 4.64 4.27 3.95 3.71 3.31 2.97 2.75 2.62 2.57 2.83 2.94 2.95 3.05 3.19 3.25 3.50 3.40 3.23 3.30 3.37 3.53 3.68 3.55 3.14
2.06 2.35 2.52 2.63 2.74 2.79 2.99 3.20 3.51 3.73 3.98 4.13 4.34 4.52 4.54 4.41 4.25 4.07 3.81 3.60 3.41 3.07 2.95 2.74 2.58 2.47 2.43 2.47 2.58 2.59 2.71 2.91 2.98 2.98 3.07 3.13 3.07 3.14 3.15 3.27 3.44 3.59 3.37
2.05 2.26 2.38 2.52 2.60 2.58 2.68 2.79 3.04 3.21 3.44 3.58 3.57 3.46 3.50 3.42 3.25 3.03 2.88 2.69 2.52 2.42 2.41 2.34 2.36 2.33 2.28 2.34 2.44 2.34 2.40 2.57 2.58 2.59 2.67 2.73 2.72 2.86 2.89 2.99 3.17 3.32 3.29
1.97 2.09 2.26 2.29 2.29 2.28 2.34 2.48 2.66 2.86 3.02 3.05 3.09 3.02 2.91 2.72 2.59 2.42 2.28 2.21 2.14 2.12 2.10 2.13 2.16 2.19 2.21 2.26 2.23 2.05 2.09 2.16 2.34 2.46 2.52 2.55 2.61 2.71 2.67 2.71 2.77 2.90 3.10
1.91 1.86 1.93 1.98 2.02 2.11 2.22 2.35 2.39 2.48 2.56 2.67 2.72 2.73 2.66 2.49 2.29 2.14 2.05 2.08 2.07 2.04 2.03 2.03 1.99 2.01 2.16 2.27 2.19 2.02 1.95 2.08 2.24 2.38 2.53 2.48 2.44 2.47 2.52 2.61 2.59 2.59 2.77
1.94 1.88 1.87 1.86 1.87 2.09 2.24 2.22 2.28 2.35 2.42 2.57 2.59 2.60 2.63 2.47 2.25 2.14 2.18 2.21 2.10 2.06 2.01 1.95 1.93 1.96 2.04 2.10 2.02 1.94 1.90 1.95 2.04 2.16 2.23 2.27 2.32 2.23 2.19 2.22 2.30 2.32 2.38
2.05 2.10 2.14 2.08 2.01 2.08 2.26 2.28 2.39 2.45 2.49 2.51 2.44 2.26 2.18 2.16 2.16 2.11 2.12 2.11 2.03 2.01 2.01 2.00 1.98 1.94 1.85 1.73 1.69 1.69 1.71 1.76 1.77 1.82 1.85 1.94 2.09 2.10 2.07 2.00 2.11 2.22 2.39
2.23 2.21 2.13 2.12 2.04 2.02 2.21 2.37 2.42 2.40 2.64 2.69 2.56 2.38 2.18 2.17 2.18 2.11 2.06 2.05 1.99 1.84 1.88 1.92 1.85 1.71 1.55 1.37 1.41 1.48 1.50 1.61 1.63 1.63 1.55 1.54 1.75 1.92 1.87 1.68 1.86 2.12 2.32
2.39 2.36 2.34 2.32 2.24 2.14 2.22 2.44 2.47 2.44 2.58 2.58 2.64 2.66 2.58 2.58 2.45 2.25 2.16 2.14 2.11 2.03 1.92 1.87 1.79 1.64 1.33 1.35 1.33 1.43 1.56 1.65 1.62 1.63 1.60 1.48 1.51 1.59 1.55 1.48 1.62 1.90 2.00
2.66 2.63 2.66 2.60 2.60 2.56 2.50 2.52 2.48 2.44 2.48 2.59 2.67 2.67 2.65 2.59 2.51 2.30 2.24 2.28 2.22 2.13 1.99 1.84 1.78 1.71 1.61 1.49 1.26 1.30 1.44 1.54 1.53 1.54 1.58 1.39 1.30 1.51 1.53 1.53 1.50 1.56 1.58
2.67 2.69 2.80 2.78 2.77 2.68 2.62 2.55 2.54 2.62 2.70 2.76 2.74 2.63 2.50 2.49 2.44 2.44 2.42 2.35 2.26 2.15 2.03 1.88 1.73 1.62 1.37 1.26 1.14 1.19 1.29 1.49 1.48 1.44 1.49 1.55 1.45 1.39 1.46 1.45 1.44 1.46 1.50
2.74 2.70 2.67 2.66 2.71 2.65 2.57 2.53 2.54 2.60 2.65 2.67 2.56 2.47 2.48 2.50 2.33 2.32 2.31 2.29 2.19 2.06 1.94 1.82 1.72 1.62 1.40 1.20 1.09 1.19 1.33 1.50 1.47 1.42 1.40 1.47 1.47 1.47 1.42 1.45 1.56 1.60 1.57
2.48 2.39 2.24 2.18 2.37 2.53 2.53 2.45 2.40 2.42 2.41 2.27 2.09 2.02 2.14 2.17 2.01 1.91 1.90 1.94 1.99 1.97 1.88 1.75 1.69 1.61 1.55 1.41 1.22 1.22 1.28 1.42 1.45 1.52 1.48 1.44 1.42 1.44 1.39 1.50 1.68 1.67 1.62
1.98 1.92 1.89 1.97 2.11 2.17 2.22 2.27 2.19 2.24 2.16 1.98 1.88 1.90 1.89 1.87 1.83 1.84 1.87 1.82 1.74 1.78 1.81 1.79 1.68 1.57 1.44 1.34 1.21 1.17 1.07 1.19 1.34 1.40 1.48 1.42 1.36 1.33 1.34 1.47 1.56 1.58 1.57
1.66 1.61 1.72 1.84 1.89 1.83 1.83 1.95 1.98 2.00 1.92 1.83 1.75 1.80 1.78 1.67 1.75 1.92 1.87 1.82 1.82 1.78 1.73 1.75 1.64 1.44 1.32 1.18 1.07 1.07 1.09 1.16 1.30 1.39 1.42 1.38 1.34 1.31 1.37 1.40 1.47 1.51 1.59
1.41 1.47 1.52 1.65 1.77 1.77 1.79 1.85 1.83 1.75 1.76 1.81 1.74 1.67 1.61 1.70 1.78 1.90 1.85 1.77 1.73 1.60 1.47 1.44 1.40 1.28 1.14 1.03 0.97 0.97 1.05 1.17 1.24 1.30 1.36 1.31 1.30 1.31 1.42 1.46 1.50 1.60 1.80
1.30 1.38 1.44 1.49 1.63 1.61 1.62 1.74 1.68 1.63 1.78 1.89 1.81 1.68 1.59 1.58 1.62 1.70 1.71 1.62 1.54 1.44 1.34 1.27 1.21 1.16 1.13 1.02 0.93 0.94 0.99 1.07 1.16 1.22 1.28 1.36 1.42 1.43 1.52 1.64 1.74 1.79 1.88
1.45 1.44 1.48 1.48 1.46 1.45 1.46 1.46 1.49 1.61 1.80 1.78 1.63 1.52 1.42 1.37 1.40 1.41 1.40 1.40 1.29 1.24 1.20 1.10 1.02 1.07 1.06 0.98 0.99 0.98 0.98 1.03 1.07 1.11 1.26 1.48 1.54 1.64 1.71 1.74 1.78 1.82 1.77
1.40 1.46 1.41 1.32 1.32 1.39 1.42 1.34 1.28 1.41 1.66 1.67 1.44 1.29 1.21 1.19 1.12 1.10 1.12 1.13 1.12 1.10 1.04 1.03 0.98 0.89 0.86 0.85 0.85 0.89 0.96 1.03 1.11 1.14 1.29 1.42 1.48 1.59 1.65 1.67 1.68 1.71 1.72